Lid_Strength_Index
12 11 11 11 11 11 13 12 14 12 12 11 9 9 7 8 8 8 7 6 6 6 6 6 6 5 4 4 4 3 4 3 3 3 3 3 2 2 2 3 2 2 2 2
13 11 12 13 11 11 11 11 12 12 12 10 8 7 8 7 8 7 7 6 5 5 6 6 5 4 4 4 5 4 4 3 3 3 3 2 3 3 3 3 3 2 2 2
16 12 12 15 12 11 11 10 10 13 11 10 9 8 7 8 7 7 6 6 5 5 5 5 5 4 4 4 5 4 4 3 3 3 3 2 3 3 4 4 4 3 3 3
18 14 18 13 10 9 11 10 10 10 10 9 8 6 6 6 7 7 6 6 5 4 5 5 5 4 4 5 4 3 4 4 4 3 3 3 3 3 5 5 5 5 4 4
18 17 14 11 10 12 11 11 9 9 9 9 8 7 8 6 5 6 6 5 4 4 4 5 5 4 4 5 4 3 3 4 4 3 4 4 4 4 5 5 5 5 5 4
16 19 18 14 10 8 9 13 9 9 9 10 8 10 9 6 5 6 6 5 5 4 4 5 5 4 4 5 4 3 3 3 4 3 3 3 4 4 5 4 5 5 6 5
17 18 15 10 9 9 14 14 11 8 8 10 8 7 6 5 5 5 6 5 5 4 4 5 5 4 4 5 4 3 3 3 3 3 3 4 4 4 4 4 4 6 6 7
15 18 20 10 11 14 13 11 11 10 8 9 7 7 6 5 5 6 6 6 5 4 5 5 5 4 4 5 4 3 3 2 3 4 3 3 4 4 4 4 5 5 6 7
14 14 10 10 12 11 11 11 11 11 10 7 7 8 6 5 5 5 6 5 4 4 5 5 5 4 5 4 5 4 3 3 4 4 3 3 4 4 4 4 5 5 5 6
14 11 11 10 11 11 10 11 10 9 9 7 8 8 7 5 5 5 5 5 5 5 6 6 5 4 4 5 4 4 4 4 3 3 3 3 3 3 3 4 4 4 4 5
14 12 11 10 11 11 10 10 9 9 9 7 6 6 6 6 5 5 5 5 4 5 5 5 5 4 4 4 4 5 5 5 4 3 2 2 2 3 2 2 3 3 3 4
15 12 12 12 10 10 11 10 9 9 9 7 7 6 6 6 4 4 5 5 5 5 5 5 5 5 4 4 4 4 5 5 5 3 2 2 2 5 11 10 9 9 8 5
12 10 10 10 9 9 10 10 9 9 8 8 7 5 5 6 5 4 4 4 4 5 5 5 5 5 4 3 4 4 5 5 5 4 2 3 3 3 4 8 11 11 11 10
9 9 11 10 11 9 10 9 8 8 8 7 4 4 4 5 5 4 4 4 4 4 4 4 5 5 4 3 3 4 5 8 5 3 2 2 3 3 3 4 5 6 12 10
9 9 10 9 9 9 9 9 9 9 8 8 5 5 5 5 5 5 4 4 3 4 4 4 4 4 4 3 4 4 5 5 5 4 2 3 2 2 3 3 3 6 9 11
9 9 11 10 10 10 9 10 9 9 8 8 6 5 5 4 4 4 4 3 4 4 4 4 4 4 4 3 4 5 4 8 7 5 4 3 2 3 3 3 4 5 6 6
9 9 10 10 11 10 10 10 9 8 7 8 7 6 7 6 5 4 4 4 4 4 3 3 4 3 3 4 4 4 4 6 8 5 4 4 3 3 3 3 4 4 4 6
8 8 9 8 9 10 10 10 9 7 7 7 7 7 7 7 7 6 5 5 5 4 4 3 3 3 3 4 4 4 4 5 6 6 5 5 4 4 4 4 4 4 5 8
7 8 8 8 7 10 10 10 9 7 7 7 7 7 7 7 7 7 6 4 5 5 5 4 7 6 3 4 5 4 4 5 6 6 6 8 6 4 4 4 4 5 5 8
7 7 8 7 8 7 9 9 8 8 7 7 7 6 7 8 7 7 6 5 5 5 4 3 4 4 3 6 9 4 4 5 5 5 5 6 6 6 5 8 6 6 6 7
6 7 8 7 7 7 7 6 8 9 7 8 8 8 7 7 7 6 5 5 4 3 4 8 5 4 5 8 6 4 4 5 5 6 6 6 6 6 6 6 7 7 7 6
5 5 7 7 7 6 7 7 6 6 8 8 8 6 7 6 6 6 4 4 3 8 6 4 5 9 7 10 5 5 5 5 5 5 6 6 6 6 6 6 7 7 7 7
4 4 4 6 6 7 6 7 6 6 6 5 5 5 5 5 5 6 6 4 4 8 5 6 11 15 14 4 5 5 5 5 5 5 5 6 6 6 6 6 6 6 7 8
5 4 4 4 4 6 7 6 6 6 6 5 5 5 4 4 5 4 4 9 12 10 5 7 9 14 11 5 5 5 5 6 6 6 7 10 6 6 6 6 7 8 8 9
5 5 5 4 5 5 5 5 5 5 5 7 6 5 4 3 4 4 5 5 11 9 4 10 13 14 5 5 5 6 6 6 6 6 7 7 7 8 8 8 8 10 10 11
5 5 5 5 5 4 4 4 4 4 5 5 5 4 3 2 3 3 4 7 4 8 5 5 5 4 4 5 5 6 7 9 8 8 9 9 9 10 10 11 11 12 12 12
5 7 5 5 5 4 4 4 4 4 5 5 4 5 3 3 3 4 6 4 5 6 6 5 5 6 5 5 5 6 7 8 10 9 9 10 10 10 11 11 11 11 12 12